map of CGB home
CGB - Airport
Location
City:  Cuiabá, Mato Grosso, Brazil
Near (Alt.):Várzea Grande
Name:Marechal Rondon International Airport
ICAO:SBCY
IATA:CGB

Details
Type:Airport (Aerodrome, Airfield)
Use:Public/Civil, International (customs port of entry)
Latitude:15°39'11"S (-15.652930)
Longitude:56°07'00"W (-56.116718)
Datum:WGS 1984
Elevation:617 ft (188 m)
Variation:17.29°W (WMM2015 magnetic declination)
-0.16° annual change
Runways:1
Longest:7546 × 148 ft (2300 × 45 m), paved

Time
Time Zone:UTC-4 (DST-3)
Local Time:

Weather
METAR:SBCY 240800Z 00000KT CAVOK 25/23 Q1011
TAF:SBCY 240400Z 2406/2506 21005KT CAVOK TN24/2408Z TX34/2418Z
BECMG 2410/2412 34005KT
BECMG 2414/2416 16005KT 9999 SCT020
BECMG 2423/2501 19005KT FEW020
RMK PEN

Related Locations
Nearby:
Farthest:RPLJ: 12320 mi / 19827 km
Jomalig Island, Quezon, PH

Find:

   beyond  
but within

Other Information
Maps:
NOTAMs:
Links:
Sources:

  
flag of Brazil
flag of Mato Grosso
flag of Cuiabá
  

Sectional Chart

Flight Planning
at skyvector.com

Satellite Image

Google Maps Satellite view

 

Copyright © 2004-2017 Karl L. Swartz. All rights reserved.
The Great Circle Mapper name and logo are trademarks of the Great Circle Mapper.
All other trademarks mentioned herein belong to their respective owners.
Please see credits for attibutions and further copyright information.

  Follow gcmap on Facebook Follow gcmap on Twitter Follow gcmap on Google+ GCmap on LinkedIn

hCard Microformat

Geo Microformat